VA3BOO Weather Reports


time (UTC)temp
C
wind
direction
speed
KPH
gust
KPH
rain 1hr
cm
rain 24hr
cm
rain mn
cm
humidity
%
barometer
mb
20260507031004 7 151 0.0 1.6 0.00 1.47 1.42 90 1010.0
20260507030504 7 142 0.0 1.6 0.00 1.47 1.42 89 1009.8
20260507030004 7 153 0.0 3.2 0.00 1.47 1.42 89 1009.9
20260507025504 7 170 0.0 3.2 0.00 1.50 1.42 89 1010.0
20260507025004 7 165 0.0 3.2 0.00 1.50 1.42 89 1010.0
20260507024504 7 176 0.0 3.2 0.00 1.50 1.42 89 1010.1
20260507024004 7 180 0.0 3.2 0.00 1.50 1.42 89 1010.2
20260507023504 7 164 0.0 3.2 0.00 1.50 1.42 89 1010.1
20260507023004 7 175 1.6 6.4 0.00 1.50 1.42 89 1010.3
20260507022504 7 193 1.6 11.3 0.00 1.50 1.42 89 1010.2
20260507022004 7 195 1.6 11.3 0.00 1.50 1.42 89 1010.2
20260507021504 7 196 1.6 4.8 0.00 1.50 1.42 90 1010.4
20260507021004 7 206 1.6 4.8 0.00 1.50 1.42 90 1010.3
20260507020504 7 196 1.6 4.8 0.00 1.50 1.42 90 1010.2
20260507020004 7 158 0.0 3.2 0.00 1.50 1.42 90 1010.3
20260507015504 7 145 0.0 4.8 0.00 1.50 1.42 89 1010.2
20260507015004 7 163 0.0 4.8 0.00 1.50 1.42 89 1010.1
20260507014504 7 167 0.0 4.8 0.00 1.50 1.42 89 1010.1
20260507014004 7 177 0.0 4.8 0.00 1.50 1.42 89 1010.1
20260507013504 7 220 0.0 3.2 0.00 1.50 1.42 89 1010.3
20260507013004 7 231 0.0 3.2 0.00 1.52 1.42 89 1010.3
20260507012504 7 233 0.0 6.4 0.00 1.52 1.42 89 1010.3
20260507012004 7 221 1.6 6.4 0.00 1.52 1.42 89 1010.4
20260507011504 6 212 0.0 3.2 0.00 1.52 1.42 89 1010.4
20260507011004 6 213 0.0 3.2 0.00 1.52 1.42 89 1010.3
20260507010504 6 212 0.0 3.2 0.00 1.55 1.42 89 1010.4
20260507010004 6 210 1.6 9.7 0.00 1.55 1.42 89 1010.3
20260507005504 6 213 0.0 9.7 0.00 1.57 1.42 89 1010.3
20260507005004 6 212 0.0 1.6 0.00 1.57 1.42 89 1010.2
20260507004504 6 199 0.0 1.6 0.00 1.57 1.42 89 1010.3
20260507004004 6 219 0.0 4.8 0.00 1.60 1.42 89 1010.3
20260507003504 7 209 0.0 4.8 0.00 1.60 1.42 89 1010.1
20260507003004 7 165 0.0 3.2 0.00 1.63 1.42 88 1010.2
20260507002504 7 196 0.0 1.6 0.00 1.63 1.42 88 1010.0
20260507002004 7 197 0.0 3.2 0.00 1.63 1.42 88 1010.2
20260507001504 7 200 0.0 3.2 0.00 1.65 1.42 88 1010.1
20260507001004 7 206 0.0 1.6 0.00 1.65 1.42 88 1009.9
20260507000505 7 201 0.0 1.6 0.00 1.65 1.42 87 1010.0
20260507000004 7 200 0.0 3.2 0.00 1.65 1.42 87 1009.9
20260506235504 7 197 0.0 3.2 0.00 1.68 1.42 86 1009.6
20260506235004 7 186 0.0 4.8 0.00 1.68 1.42 86 1009.6
20260506234504 7 192 1.6 4.8 0.00 1.68 1.42 85 1009.6
20260506234004 8 208 0.0 1.6 0.00 1.68 1.42 85 1009.5
20260506233504 8 208 0.0 1.6 0.00 1.70 1.42 85 1009.6
20260506233004 8 208 0.0 1.6 0.00 1.70 1.42 85 1009.6
20260506232504 8 208 0.0 1.6 0.00 1.73 1.42 86 1009.7
20260506232004 8 208 0.0 3.2 0.00 1.73 1.42 86 1009.5
20260506231504 8 208 0.0 3.2 0.00 1.75 1.42 85 1009.7
20260506231004 8 260 0.0 1.6 0.00 1.75 1.42 85 1009.4
20260506230504 8 260 0.0 1.6 0.00 1.78 1.42 84 1009.3
20260506230004 8 235 0.0 1.6 0.00 1.78 1.42 83 1009.3
20260506225504 8 195 0.0 1.6 0.00 1.78 1.42 83 1009.5
20260506225004 8 169 0.0 1.6 0.00 1.78 1.42 83 1009.5
20260506224504 8 169 0.0 1.6 0.00 1.78 1.42 81 1009.4
20260506224004 8 165 0.0 1.6 0.00 1.78 1.42 81 1009.4
20260506223504 8 182 0.0 1.6 0.00 1.78 1.42 80 1009.4
20260506223004 8 208 0.0 1.6 0.00 1.78 1.42 80 1009.4
20260506222504 8 207 0.0 1.6 0.00 1.78 1.42 81 1009.4
20260506222004 8 205 0.0 1.6 0.00 1.78 1.42 80 1009.4
20260506221504 8 205 0.0 1.6 0.00 1.78 1.42 80 1009.4
20260506221004 8 205 0.0 1.6 0.00 1.78 1.42 79 1009.4
20260506220504 8 205 0.0 1.6 0.00 1.78 1.42 79 1009.6
20260506220004 8 205 0.0 3.2 0.00 1.78 1.42 79 1009.3
20260506215504 8 205 0.0 3.2 0.00 1.78 1.42 79 1009.3
20260506215004 8 205 0.0 1.6 0.00 1.78 1.42 79 1009.4
20260506214504 8 205 0.0 3.2 0.00 1.78 1.42 78 1009.3
20260506214004 8 193 0.0 3.2 0.00 1.78 1.42 78 1009.5
20260506213504 8 167 0.0 1.6 0.00 1.78 1.42 79 1009.5
20260506213004 8 161 0.0 1.6 0.00 1.78 1.42 78 1009.0
20260506212504 8 172 0.0 4.8 0.00 1.78 1.42 78 1009.2
20260506212004 8 177 0.0 4.8 0.00 1.78 1.42 79 1009.2
20260506211504 9 188 0.0 3.2 0.00 1.78 1.42 77 1009.2
20260506211004 9 180 0.0 3.2 0.00 1.78 1.42 78 1009.2
20260506210504 9 187 0.0 3.2 0.00 1.78 1.42 78 1009.3
20260506210004 9 188 1.6 3.2 0.00 1.78 1.42 78 1009.1
20260506205504 8 184 1.6 3.2 0.00 1.78 1.42 78 1008.9
20260506205004 9 182 0.0 3.2 0.00 1.78 1.42 77 1009.1
20260506204504 10 190 0.0 1.6 0.00 1.78 1.42 75 1009.1
20260506204004 10 201 0.0 3.2 0.00 1.78 1.42 76 1009.3
20260506203504 9 179 0.0 4.8 0.00 1.78 1.42 77 1009.0
20260506203004 9 150 1.6 4.8 0.00 1.78 1.42 77 1009.1
20260506202504 9 147 1.6 6.4 0.00 1.78 1.42 78 1009.0
20260506202004 9 161 1.6 6.4 0.00 1.78 1.42 76 1009.0
20260506201504 10 174 1.6 6.4 0.00 1.78 1.42 74 1009.1
20260506201004 10 174 1.6 3.2 0.00 1.78 1.42 78 1009.0
20260506200504 9 172 1.6 3.2 0.00 1.78 1.42 78 1009.2
20260506200004 9 147 1.6 3.2 0.00 1.78 1.42 74 1009.1
20260506195504 9 77 1.6 4.8 0.00 1.78 1.42 75 1009.3
20260506195004 8 59 1.6 4.8 0.00 1.78 1.42 74 1009.2
20260506194504 9 108 1.6 3.2 0.00 1.78 1.42 76 1008.9
20260506194004 9 144 1.6 4.8 0.00 1.78 1.42 78 1008.9
20260506193504 9 148 1.6 4.8 0.00 1.78 1.42 78 1009.2
20260506193004 8 112 1.6 3.2 0.00 1.78 1.42 79 1009.2
20260506192504 8 344 1.6 4.8 0.00 1.78 1.42 79 1009.2
20260506192004 8 313 1.6 4.8 0.00 1.78 1.42 71 1009.3
20260506191504 8 333 1.6 4.8 0.00 1.78 1.42 71 1009.4
20260506191004 8 342 1.6 3.2 0.00 1.78 1.42 74 1009.4
20260506190504 8 345 1.6 4.8 0.00 1.78 1.42 75 1009.3
20260506190004 8 343 1.6 4.8 0.00 1.78 1.42 75 1009.4
20260506185504 8 345 1.6 3.2 0.00 1.78 1.42 77 1009.5
20260506185004 8 337 1.6 3.2 0.00 1.78 1.42 78 1009.3
20260506184504 8 348 1.6 3.2 0.00 1.78 1.42 77 1009.2
20260506184004 8 356 1.6 4.8 0.00 1.78 1.42 77 1009.2
20260506183504 8 357 1.6 4.8 0.00 1.78 1.42 78 1009.1
20260506183004 8 344 0.0 3.2 0.00 1.78 1.42 80 1009.2
20260506182504 8 331 1.6 6.4 0.00 1.78 1.42 81 1009.2
20260506182003 8 348 1.6 6.4 0.00 1.78 1.42 80 1009.2
20260506181504 8 45 1.6 3.2 0.00 1.78 1.42 81 1009.2
20260506181003 7 25 1.6 9.7 0.00 1.78 1.42 81 1009.1
20260506180504 7 13 3.2 9.7 0.00 1.78 1.42 81 1009.2
20260506180005 7 7 1.6 6.4 0.00 1.78 1.42 82 1009.3
20260506175504 7 17 1.6 4.8 0.00 1.78 1.42 83 1009.3
20260506175004 7 55 1.6 4.8 0.00 1.78 1.42 83 1009.1
20260506174504 8 87 0.0 4.8 0.00 1.78 1.42 83 1009.0
20260506174004 7 37 1.6 4.8 0.00 1.78 1.42 83 1009.1
20260506173503 7 3 3.2 6.4 0.00 1.78 1.42 85 1009.1
20260506173004 7 360 3.2 11.3 0.00 1.78 1.42 85 1009.1
20260506172503 7 356 3.2 11.3 0.00 1.78 1.42 84 1009.1
20260506172004 7 18 3.2 9.7 0.00 1.78 1.42 85 1009.1
20260506171504 7 28 3.2 9.7 0.00 1.78 1.42 84 1009.0
20260506171004 7 34 3.2 9.7 0.00 1.78 1.42 84 1009.0
20260506170504 7 50 3.2 9.7 0.00 1.78 1.42 84 1008.9
20260506170004 7 29 3.2 6.4 0.00 1.78 1.42 84 1008.8
20260506165504 7 40 3.2 9.7 0.00 1.78 1.42 86 1009.0
20260506165004 7 49 3.2 12.9 0.00 1.78 1.42 85 1008.9
20260506164504 7 35 4.8 12.9 0.00 1.78 1.42 85 1009.0
20260506164004 7 38 3.2 6.4 0.00 1.78 1.42 87 1009.2
20260506163504 7 56 3.2 12.9 0.00 1.78 1.42 86 1009.0
20260506163004 7 40 4.8 14.5 0.00 1.78 1.42 86 1009.0
20260506162504 7 25 4.8 14.5 0.00 1.78 1.42 87 1009.1
20260506162003 7 20 3.2 11.3 0.00 1.78 1.42 88 1009.1
20260506161504 7 24 3.2 9.7 0.00 1.78 1.42 87 1009.2
20260506161004 7 31 4.8 11.3 0.00 1.78 1.42 88 1009.4
20260506160504 6 23 4.8 11.3 0.00 1.78 1.42 87 1009.5
20260506160004 7 11 3.2 9.7 0.00 1.78 1.42 89 1009.6
20260506155503 7 8 3.2 11.3 0.00 1.78 1.42 91 1009.8
20260506155004 6 9 4.8 11.3 0.00 1.78 1.42 91 1009.7
20260506154504 6 2 4.8 11.3 0.00 1.78 1.42 90 1009.8
20260506154004 6 3 3.2 11.3 0.00 1.78 1.42 91 1009.9
20260506153503 6 3 4.8 6.4 0.00 1.78 1.42 90 1009.9
20260506153004 6 350 4.8 11.3 0.00 1.78 1.42 90 1009.7
20260506152503 6 2 4.8 11.3 0.00 1.78 1.42 91 1009.7
20260506152003 6 9 4.8 11.3 0.03 1.78 1.42 91 1009.6
20260506151504 6 3 3.2 11.3 0.03 1.78 1.42 91 1009.6
20260506151003 6 15 1.6 4.8 0.05 1.78 1.42 93 1009.6
20260506150504 6 9 1.6 9.7 0.08 1.78 1.42 92 1009.4
20260506150004 6 343 3.2 9.7 0.08 1.78 1.42 92 1009.7
20260506145503 6 356 3.2 11.3 0.10 1.78 1.42 92 1009.3
20260506145003 6 22 3.2 11.3 0.10 1.78 1.42 92 1009.5
20260506144503 6 20 3.2 12.9 0.13 1.78 1.42 93 1009.5
20260506144003 6 22 3.2 12.9 0.13 1.78 1.42 93 1009.5
20260506143504 6 28 1.6 4.8 0.15 1.78 1.42 94 1009.5
20260506143004 6 11 1.6 4.8 0.15 1.78 1.42 94 1009.3
20260506142504 6 21 3.2 9.7 0.18 1.78 1.42 95 1009.4
20260506142003 6 23 3.2 9.7 0.18 1.75 1.40 94 1009.2
20260506141504 6 1 1.6 6.4 0.20 1.75 1.40 95 1009.4
20260506141003 6 347 3.2 9.7 0.18 1.73 1.37 95 1009.5
20260506140503 6 349 1.6 9.7 0.18 1.70 1.35 95 1009.4
20260506140004 6 356 1.6 6.4 0.20 1.70 1.35 95 1009.5
20260506135503 6 20 1.6 4.8 0.18 1.68 1.32 95 1009.6
20260506135004 6 20 1.6 4.8 0.20 1.68 1.32 95 1009.7
20260506134504 6 13 1.6 4.8 0.20 1.65 1.30 95 1009.6
20260506134004 6 18 1.6 4.8 0.23 1.65 1.30 95 1009.4
20260506133504 6 25 1.6 4.8 0.20 1.63 1.27 95 1009.2
20260506133004 6 19 1.6 4.8 0.23 1.63 1.27 95 1009.3
20260506132503 6 360 1.6 3.2 0.20 1.60 1.24 96 1009.3
20260506132003 6 17 1.6 6.4 0.20 1.57 1.22 96 1009.4
20260506131503 6 9 1.6 6.4 0.18 1.55 1.19 96 1009.4
20260506131004 6 10 1.6 6.4 0.20 1.55 1.19 96 1009.4
20260506130503 6 9 1.6 3.2 0.18 1.52 1.17 96 1009.3
20260506130004 6 17 1.6 3.2 0.18 1.50 1.14 96 1009.6
20260506125503 6 24 1.6 6.4 0.18 1.50 1.14 96 1009.6
20260506125004 6 12 1.6 6.4 0.15 1.47 1.12 96 1009.4
20260506124504 6 20 1.6 9.7 0.13 1.45 1.09 96 1009.4
20260506124004 5 24 1.6 9.7 0.13 1.42 1.07 95 1009.5
20260506123503 5 26 1.6 4.8 0.13 1.42 1.07 95 1009.3
20260506123003 5 53 1.6 4.8 0.13 1.40 1.04 95 1009.4
20260506122503 5 100 0.0 3.2 0.15 1.40 1.04 95 1009.6
20260506122003 5 76 0.0 3.2 0.13 1.37 1.02 95 1009.6
20260506121503 5 49 1.6 6.4 0.15 1.37 1.02 95 1009.6
20260506121004 5 63 1.6 6.4 0.13 1.35 0.99 95 1009.3
20260506120503 6 109 0.0 3.2 0.13 1.35 0.99 96 1009.5
20260506120004 6 27 0.0 4.8 0.13 1.32 0.97 96 1009.5
20260506115503 5 26 1.6 4.8 0.13 1.32 0.97 96 1009.5
20260506115003 5 25 1.6 4.8 0.13 1.32 0.97 96 1009.6
20260506114503 5 14 1.6 4.8 0.15 1.32 0.97 96 1009.3
20260506114003 5 6 1.6 4.8 0.13 1.30 0.94 97 1009.4
20260506113503 5 355 0.0 3.2 0.15 1.30 0.94 97 1009.5
20260506113003 6 329 0.0 3.2 0.13 1.27 0.91 97 1009.8
20260506112503 6 256 0.0 1.6 0.13 1.24 0.89 97 1009.4
20260506112003 6 256 0.0 1.6 0.15 1.24 0.89 97 1009.8
20260506111503 6 256 0.0 1.6 0.15 1.22 0.86 97 1009.8
20260506111004 6 256 0.0 1.6 0.15 1.22 0.86 97 1009.8
20260506110504 6 256 0.0 1.6 0.18 1.22 0.86 97 1009.8
20260506110004 6 256 0.0 1.6 0.18 1.19 0.84 97 1009.8
20260506105503 6 0 0.0 0.0 0.18 1.19 0.84 97 1009.8
20260506105003 6 0 0.0 0.0 0.20 1.19 0.84 97 1009.7
20260506104503 6 0 0.0 0.0 0.20 1.17 0.81 97 1009.8
20260506104003 5 0 0.0 0.0 0.20 1.17 0.81 97 1009.7
20260506103503 5 0 0.0 0.0 0.20 1.14 0.79 97 1009.6
20260506103003 5 0 0.0 0.0 0.20 1.14 0.79 97 1009.7
20260506102503 5 0 0.0 0.0 0.20 1.12 0.76 97 1009.5
20260506102003 5 0 0.0 0.0 0.18 1.09 0.74 97 1009.8
20260506101504 5 0 0.0 0.0 0.18 1.07 0.71 97 1009.6
20260506101004 5 0 0.0 0.0 0.20 1.07 0.71 97 1009.4
20260506100503 6 0 0.0 0.0 0.18 1.04 0.69 97 1009.6
20260506100004 6 0 0.0 0.0 0.18 1.02 0.66 97 1009.6
20260506095504 6 256 0.0 1.6 0.18 1.02 0.66 97 1009.5
20260506095004 6 256 0.0 1.6 0.18 0.99 0.64 97 1009.6
20260506094503 6 0 0.0 0.0 0.18 0.97 0.61 97 1009.6
20260506094003 6 0 0.0 0.0 0.20 0.97 0.61 97 1009.7
20260506093503 6 256 0.0 1.6 0.20 0.94 0.58 97 1009.7
20260506093004 6 256 0.0 1.6 0.23 0.97 0.58 97 1009.3
20260506092504 6 0 0.0 0.0 0.23 0.94 0.56 97 1009.1
20260506092003 6 0 0.0 0.0 0.23 0.94 0.56 97 1009.1
20260506091504 6 0 0.0 0.0 0.23 0.91 0.53 97 1009.2
20260506091004 6 0 0.0 0.0 0.23 0.97 0.51 97 1009.2
20260506090504 6 0 0.0 0.0 0.23 1.02 0.51 97 1009.4
20260506090003 6 0 0.0 0.0 0.20 1.02 0.48 97 1009.4
20260506085504 6 0 0.0 0.0 0.20 1.02 0.48 97 1009.4
20260506085004 6 257 0.0 1.6 0.18 0.99 0.46 97 1009.4
20260506084503 6 257 0.0 1.6 0.15 0.97 0.43 97 1009.6
20260506084003 6 256 0.0 1.6 0.13 0.94 0.41 97 1009.5
20260506083503 6 256 0.0 3.2 0.13 0.91 0.38 97 1009.9
20260506083004 6 256 0.0 3.2 0.10 0.89 0.36 97 1010.1
20260506082504 6 256 0.0 1.6 0.08 0.86 0.33 97 1009.9
20260506082004 6 268 0.0 1.6 0.08 0.86 0.33 97 1009.7
20260506081503 6 292 1.6 4.8 0.05 0.84 0.30 97 1009.9
20260506081003 6 324 1.6 4.8 0.03 0.81 0.28 97 1009.9
20260506080503 6 349 1.6 4.8 0.03 0.81 0.28 97 1010.0
20260506073503 6 268 0.0 1.6 0.00 0.79 0.25 97 1009.1
20260506073003 6 269 0.0 1.6 0.03 0.79 0.25 97 1009.2
20260506072503 6 274 0.0 4.8 0.03 0.79 0.25 97 1009.4
20260506072003 6 284 0.0 4.8 0.03 0.79 0.25 97 1009.4
20260506071503 6 315 0.0 3.2 0.05 0.79 0.25 97 1009.4
20260506071003 6 305 0.0 3.2 0.08 0.79 0.25 97 1009.4
20260506070504 6 287 0.0 1.6 0.08 0.79 0.25 97 1009.4
20260506062503 6 231 0.0 1.6 0.20 0.76 0.23 97 1009.5
20260506062003 6 315 0.0 1.6 0.23 0.76 0.23 97 1009.4
20260506061503 6 217 0.0 3.2 0.20 0.74 0.20 97 1009.2
20260506061003 6 197 1.6 4.8 0.18 0.71 0.18 97 1009.2
20260506060504 6 177 1.6 6.4 0.18 0.71 0.18 97 1009.0
20260506051003 7 212 0.0 3.2 0.00 0.53 0.00 96 1009.9
20260506050503 7 212 0.0 3.2 0.00 0.53 0.00 96 1010.0
20260506045003 7 229 0.0 3.2 0.03 0.53 0.00 96 1009.7
20260506044503 7 206 0.0 4.8 0.03 0.53 0.00 96 1010.0
20260506044003 7 157 0.0 4.8 0.03 0.53 0.00 96 1010.0
20260506043503 7 236 0.0 4.8 0.05 0.53 0.00 96 1010.2
20260506043003 7 249 0.0 4.8 0.05 0.53 0.00 96 1010.2
20260506042503 7 259 0.0 4.8 0.05 0.53 0.00 96 1009.9
20260506042003 7 249 0.0 4.8 0.05 0.53 0.00 96 1009.9
20260506041503 7 250 0.0 3.2 0.05 0.53 0.00 96 1009.8
20260506041003 7 200 0.0 4.8 0.05 0.53 0.00 96 1009.6
20260506040503 7 202 1.6 4.8 0.05 0.53 0.00 96 1009.6
20260506040004 7 194 0.0 4.8 0.05 0.53 0.00 96 1009.8
20260506035503 7 179 0.0 3.2 0.08 0.53 0.53 96 1009.8
20260506035003 7 236 0.0 1.6 0.05 0.51 0.51 96 1009.6
20260506034503 7 184 0.0 1.6 0.05 0.51 0.51 95 1009.5
20260506034003 7 164 0.0 4.8 0.05 0.51 0.51 95 1009.5
20260506033503 7 169 1.6 4.8 0.03 0.48 0.48 95 1009.7
20260506033004 7 159 1.6 4.8 0.03 0.48 0.48 95 1009.8
20260506032503 7 161 1.6 4.8 0.03 0.48 0.48 95 1009.9
20260506032003 7 201 0.0 1.6 0.03 0.48 0.48 95 1010.1
20260506031503 7 218 0.0 3.2 0.03 0.48 0.48 95 1010.2